Location: Recife
(8.0585°S, 34.8848°W)
Time: 12:37:47
(UTC-03:00)

Vanguard 2 - Pass Details

Date: 14 April 2026
Orbit: 554 x 2894 km, 32.9° (Epoch: 7 May)

Event Time Altitude Azimuth Distance (km) Brightness Sun altitude
Rises 16:50:29 0° 350° (N) 4,158 11.6 5.8°
Reaches altitude 10° 16:55:05 10° 15° (NNE) 3,669 11.0 4.7°
Maximum altitude 16:59:41 14° 44° (NE) 3,803 10.8 3.6°
Drops below altitude 10° 17:05:13 10° 71° (ENE) 4,610 11.0 2.2°
Sets 17:12:32 0° 92° (E) 6,146 11.4 0.4°
